Weather History for Scappoose, OR

Change the Weather History Date:

Thursday, November 28, 2013

  Actual Average Record
Temperature  
Mean Temperature 39 °F -  
Max Temperature 51 °F - 55 °F (1999)
Min Temperature 26 °F - 24 °F (2005)
Degree Days  
Heating Degree Days 26    
Month to date heating degree days 577  
Since 1 July heating degree days 1147  
Cooling Degree Days 0    
Month to date cooling degree days 0  
Year to date cooling degree days 396  
Moisture  
Dew Point 30 °F    
Average Humidity 71    
Maximum Humidity 92    
Minimum Humidity 50    
Precipitation  
Precipitation 0.00 in - 1.36 in (2001)
Month to date precipitation 3.05  
Year to date precipitation 25.56  
Sea Level Pressure  
Sea Level Pressure 30.11 in    
Wind  
Wind Speed 1 mph (West)    
Max Wind Speed 6 mph    
Max Gust Speed 7 mph    
Visibility 8 miles    
Events      
T = Trace of Precipitation, MM = Missing Value Source: NWS Daily Summary

Daily Weather History Graph

Daily Weather History Graph

Search for Another Location

Airport:

Trip Planner

Search our weather history database for the weather conditions in past years. The results will help you decide how hot, cold, wet, or windy it might be!

Date:

Astronomy

Nov. 28, 2013 Rise Set
Actual Time 7:28 AM PST 4:29 PM PST
Civil Twilight 6:55 AM PST 5:03 PM PST
Nautical Twilight 6:18 AM PST 5:40 PM PST
Astronomical Twilight 5:42 AM PST 6:16 PM PST
Moon 2:23 AM PST (11/28) 1:54 PM PST (11/28)
Length of Visible Light 10h 07m
Length of Day
9h 01m
Waning Crescent, 21% of the Moon is Illuminated
Nov 28
Waning Crescent
Dec 2
New
Dec 9
First Quarter
Dec 17
Full
Dec 25
Last Quarter

Hourly Weather History & Observations

Time (PST) Temp. Windchill Dew Point Humidity Pressure Visibility Wind Dir Wind Speed Gust Speed Precip Events Conditions
12:53 AM 30.9 °F - 28.9 °F 92% 30.04 in 10.0 mi Calm Calm - N/A   Clear
1:53 AM 30.0 °F - 28.0 °F 92% 30.05 in 9.0 mi Calm Calm - N/A   Clear
2:53 AM 28.9 °F - 27.0 °F 92% 30.06 in 10.0 mi Calm Calm - N/A   Clear
3:10 AM 28.9 °F - 27.0 °F 92% 30.06 in 1.5 mi Calm Calm - N/A   Partly Cloudy
3:21 AM 28.9 °F 25.2 °F 27.0 °F 92% 30.06 in 4.0 mi NW 3.5 mph - N/A   Partly Cloudy
3:53 AM 28.9 °F - 27.0 °F 92% 30.06 in 10.0 mi Calm Calm - N/A   Clear
4:53 AM 28.9 °F - 26.1 °F 89% 30.07 in 10.0 mi Calm Calm - N/A   Clear
5:53 AM 28.0 °F - 26.1 °F 92% 30.08 in 8.0 mi Calm Calm - N/A   Clear
6:53 AM 27.0 °F - 25.0 °F 92% 30.09 in 7.0 mi Calm Calm - N/A   Clear
7:53 AM 28.9 °F - 26.1 °F 89% 30.11 in 7.0 mi Calm Calm - N/A   Clear
8:53 AM 30.9 °F - 28.9 °F 92% 30.13 in 9.0 mi Calm Calm - N/A   Clear
9:53 AM 37.0 °F - 34.0 °F 89% 30.13 in 10.0 mi Calm Calm - N/A   Clear
10:53 AM 43.0 °F - 33.1 °F 68% 30.13 in 10.0 mi Calm Calm - N/A   Clear
11:53 AM 45.0 °F 42.6 °F 33.1 °F 63% 30.12 in 10.0 mi Variable 4.6 mph - N/A   Clear
12:53 PM 48.0 °F - 33.1 °F 56% 30.11 in 10.0 mi Calm Calm - N/A   Clear
1:53 PM 50.0 °F - 33.1 °F 52% 30.10 in 10.0 mi SE 3.5 mph - N/A   Clear
2:53 PM 51.1 °F - 34.0 °F 52% 30.10 in 10.0 mi Calm Calm - N/A   Clear
3:53 PM 48.9 °F - 34.0 °F 56% 30.11 in 10.0 mi Calm Calm - N/A   Clear
4:53 PM 39.0 °F 36.8 °F 34.0 °F 82% 30.12 in 10.0 mi West 3.5 mph - N/A   Clear
5:53 PM 37.0 °F 33.3 °F 34.0 °F 89% 30.14 in 10.0 mi West 4.6 mph - N/A   Clear
6:53 PM 36.0 °F - 33.1 °F 89% 30.16 in 10.0 mi Calm Calm - N/A   Clear
7:53 PM 35.1 °F 32.2 °F 33.1 °F 92% 30.17 in 9.0 mi WNW 3.5 mph - N/A   Clear
8:53 PM 30.9 °F - 28.9 °F 92% 30.18 in 7.0 mi Calm Calm - N/A   Clear
9:53 PM 33.1 °F - 30.9 °F 92% 30.18 in 5.0 mi Calm Calm - N/A   Clear
10:53 PM 30.9 °F - 28.9 °F 92% 30.20 in 6.0 mi Calm Calm - N/A   Clear
11:53 PM 30.0 °F - 28.0 °F 92% 30.22 in 6.0 mi Calm Calm - N/A   Clear